Tracking 30744 objects as of 23-Jun-2025
HD Live streaming from Space Station
objects crossing your sky now

BREEZE-KM R/B

Track BREEZE-KM R/B now!
10-day predictions


NORAD ID: 41580
Int'l Code: 2016-034B
Perigee: 661.4 km
Apogee: 964.5 km
Inclination: 99.2 °
Period: 101.0 minutes
Semi major axis: 7183 km
RCS: Unknown
Launch date: June 4, 2016
Source: Commonwealth of Independent States (former USSR) (CIS)
Launch site: PLESETSK MISSILE AND SPACE COMPLEX (PKMTR)

Note: This is a ROCKET BODY
Your satellite tracking list
Your tracking list is empty




NASA's NSSDC Master Catalog

Two Line Element Set (TLE):
1 41580U 16034B   25173.82946493  .00000071  00000-0  40989-4 0  9997
2 41580  99.2236  16.8102 0210995 138.8339 222.8972 14.25792184470770
Source of the keplerian elements: AFSPC